Location: Bukit Setapoh
(2.2500°N, 113.8000°E)
Time: 23:41:17
(UTC+00:00)

Cosmos 1825 Rocket - Pass Details

Date: 25 July 2021
Orbit: 605 x 630 km, 82.5° (Epoch: 22 September)

Event Time Altitude Azimuth Distance (km) Brightness Sun altitude
Rises 11:46:43 0° 183° (S) 2,890 6.8 -16.9°
Reaches altitude 10° 11:48:57 10° 183° (S) 1,978 6.0 -17.4°
Maximum altitude 11:53:20 87° 94° (E) 618 3.4 -18.5°
Drops below altitude 10° 11:57:40 10° 5° (N) 1,956 6.3 -19.5°
Sets 11:59:52 0° 5° (N) 2,854 7.2 -20.0°
